Wind_Speed
43 40 37 35 34 34 35 34 33 32 34 39 45 47 47 48 52 54 56 58 59 60 61 62 62 60 59 58 57 55 54 51 49 48 46 44 42 40 39 39 39 38 37 35
41 36 34 33 32 32 32 33 32 30 32 35 38 42 43 45 48 51 54 56 58 59 61 62 62 61 61 59 58 56 55 53 50 48 46 44 43 41 40 39 39 38 37 36
37 34 32 31 29 30 31 31 31 29 30 32 36 38 39 41 45 49 52 55 57 58 60 61 61 63 62 60 59 57 55 54 52 49 48 47 45 43 41 39 38 37 36 36
36 32 30 30 28 28 28 27 28 27 28 29 31 35 36 38 42 47 51 54 56 57 59 60 61 62 62 60 59 57 56 54 53 51 50 48 45 42 40 38 38 38 37 37
34 31 29 27 26 26 26 26 26 27 27 28 28 33 32 34 38 43 48 52 54 55 57 59 60 61 62 61 59 58 57 55 54 52 50 49 46 43 42 41 40 39 38 37
31 29 27 26 25 24 24 25 25 26 26 26 24 29 29 30 34 40 45 49 52 54 55 58 60 61 62 62 61 59 58 56 54 53 51 49 47 45 43 42 41 39 39 37
29 26 25 24 22 21 22 22 22 22 23 23 22 25 25 27 31 37 43 46 49 52 55 57 58 59 62 63 62 60 59 58 55 53 51 50 48 46 43 42 41 40 39 38
29 25 23 22 20 19 18 18 19 21 22 22 21 22 23 24 28 33 40 45 48 50 53 55 57 58 60 62 62 60 60 59 57 54 51 49 48 47 44 43 41 40 39 39
31 26 22 20 18 17 17 16 18 20 21 21 21 20 20 22 26 31 37 43 47 48 51 53 55 57 59 60 62 61 59 59 58 56 53 51 49 47 45 44 42 41 40 40
31 27 22 20 18 17 16 16 17 19 21 21 20 19 18 19 21 27 33 39 44 46 49 51 53 56 58 58 60 61 60 58 57 56 54 52 51 48 46 45 43 42 41 41
32 29 24 21 19 18 18 17 17 18 20 21 20 17 16 17 19 23 30 36 41 44 47 51 53 55 56 58 58 60 60 59 57 56 55 53 52 50 48 47 44 43 42 41
32 29 25 22 21 20 19 18 18 19 20 21 21 17 17 17 18 21 26 33 39 42 45 48 52 54 56 58 59 59 60 58 56 55 54 53 52 52 49 47 45 44 42 41
32 30 27 24 23 23 22 20 20 22 22 22 22 19 17 18 19 21 24 30 36 40 43 45 49 52 54 56 57 59 59 58 57 55 54 53 52 52 50 48 46 45 43 42
32 29 28 26 24 25 24 24 23 24 24 24 23 21 18 18 19 20 24 29 34 38 41 43 46 49 53 55 56 57 58 58 57 56 55 53 53 52 51 49 47 45 44 43
31 30 28 26 25 26 26 25 26 26 26 26 23 22 20 20 20 21 23 28 32 36 39 42 46 48 50 54 56 57 57 57 57 57 55 54 52 52 52 51 48 46 45 43
30 29 28 25 24 25 26 25 26 26 27 26 25 24 23 22 22 22 24 27 31 35 37 40 44 48 50 52 55 56 56 56 56 56 54 53 52 52 52 51 49 47 45 45
30 29 27 25 23 24 23 22 23 25 26 27 26 25 24 24 24 24 25 27 31 34 36 38 42 46 49 50 53 54 55 56 56 55 54 53 52 52 52 51 49 48 46 44
30 29 27 25 23 23 21 21 22 23 24 25 25 25 26 25 25 24 26 28 30 33 35 37 40 44 47 48 50 52 54 55 55 54 54 54 53 52 51 51 49 48 46 45
29 28 26 25 24 22 20 20 21 22 23 25 26 26 26 26 25 25 27 29 30 32 34 36 39 43 46 47 49 50 51 53 55 54 54 53 53 53 52 51 50 48 47 46
29 27 26 25 25 23 21 22 22 22 22 23 25 25 26 26 26 26 28 28 30 32 34 36 38 42 45 46 47 49 50 52 53 54 54 53 53 53 52 51 50 50 48 46
28 28 27 26 26 24 22 23 23 23 22 22 23 24 25 26 26 27 29 29 30 32 34 35 37 40 43 45 46 48 49 50 51 52 53 53 52 52 52 51 50 49 48 47
29 28 27 27 28 25 25 24 24 25 23 23 23 24 25 25 26 28 29 30 30 32 33 35 36 38 41 43 45 46 47 49 49 50 51 51 51 51 51 51 50 48 47 47
28 28 29 28 27 26 27 27 26 26 25 24 24 24 25 25 25 26 28 30 31 32 33 34 35 37 39 41 43 45 46 47 48 48 49 49 49 49 49 49 49 48 47 46
28 28 28 28 26 26 27 27 27 27 26 25 25 25 25 25 25 25 26 28 30 31 33 34 36 36 37 38 40 43 44 45 46 47 47 48 48 46 46 47 47 46 45 44
27 27 27 27 25 25 25 26 27 27 27 26 25 25 25 25 25 25 25 27 29 31 32 34 36 37 37 37 39 40 42 43 45 45 46 46 46 46 44 44 44 44 43 41
24 26 27 25 24 24 23 24 25 26 26 26 26 25 25 25 24 25 25 27 28 29 32 33 35 36 37 37 38 39 40 42 43 44 44 45 45 44 43 43 43 42 41 40
Wind_Direction
309 302 298 294 291 287 280 274 269 262 255 252 247 242 236 234 231 227 224 222 220 217 216 216 215 214 215 216 216 216 216 216 218 219 220 220 221 223 223 224 225 227 229 230
309 303 298 294 292 288 282 273 268 264 256 253 250 243 237 234 231 226 222 220 219 217 214 215 214 213 214 214 215 216 216 217 218 219 219 219 220 221 222 223 225 227 228 230
312 308 301 296 292 289 283 273 267 264 258 254 254 245 236 233 229 225 221 219 218 217 214 213 214 213 213 214 215 215 216 217 218 218 219 219 220 221 222 223 225 226 228 230
314 308 304 299 293 291 285 274 267 263 260 258 254 252 236 233 228 224 221 218 217 217 215 212 213 213 213 213 215 215 216 217 217 218 219 220 221 222 223 224 225 226 228 230
315 310 304 300 295 292 288 275 266 262 261 260 257 256 241 233 228 223 221 218 216 217 216 214 214 214 214 213 214 215 214 216 217 217 218 220 220 221 222 223 224 226 228 230
317 311 305 302 297 293 287 277 269 264 261 262 259 257 246 235 229 223 221 219 216 217 215 215 214 214 214 214 214 213 213 214 217 217 218 219 220 221 222 224 225 227 228 230
317 313 308 306 300 293 289 281 275 269 264 263 261 257 247 237 230 224 222 220 217 216 216 216 215 214 214 214 214 214 213 214 215 217 217 218 220 221 222 223 225 227 229 231
316 313 310 307 302 298 293 284 278 275 271 266 260 257 248 241 232 226 223 221 219 217 217 217 217 215 215 216 215 214 215 215 215 217 217 218 219 220 222 223 224 227 229 231
318 312 308 304 299 296 294 286 280 275 275 272 265 260 250 242 233 226 223 222 220 219 218 217 217 216 215 216 217 216 214 215 216 216 217 218 218 220 222 223 224 226 228 230
319 312 306 299 293 288 286 286 281 274 273 273 270 263 255 241 234 228 224 223 222 220 219 218 217 217 216 215 216 217 216 215 215 216 217 218 219 220 222 223 225 226 228 230
319 311 305 297 289 283 280 281 279 272 267 270 271 261 259 250 241 234 228 224 224 222 220 218 218 217 216 215 216 217 217 216 216 216 218 218 219 220 221 223 225 226 228 231
318 310 302 294 286 279 276 277 274 272 265 263 266 262 260 252 245 239 232 226 225 224 221 220 219 218 217 216 216 216 217 217 217 217 218 219 220 221 222 223 225 227 228 231
318 312 303 294 286 277 272 271 270 270 267 262 262 261 255 250 245 241 234 228 225 224 222 220 219 218 218 217 216 216 217 217 217 217 218 219 221 221 222 223 226 228 229 231
314 307 300 293 285 278 271 268 268 267 264 262 260 257 251 249 243 236 233 228 225 223 222 220 219 218 218 218 217 217 217 217 217 217 219 220 221 222 223 224 225 228 229 231
310 304 299 292 284 278 273 269 266 265 264 263 260 258 251 247 245 239 233 228 224 223 222 221 220 218 217 217 217 218 216 217 217 218 219 221 222 223 224 224 225 227 229 231
309 304 299 293 287 281 274 270 268 264 262 261 259 256 252 248 246 243 237 230 224 222 221 220 221 221 219 218 218 217 216 216 216 217 218 220 222 223 224 225 225 227 230 232
308 303 299 294 287 281 277 271 268 264 263 261 260 256 254 251 249 244 236 228 223 222 221 220 219 220 220 219 219 218 218 217 216 216 217 219 222 224 225 227 227 228 230 231
309 304 299 294 288 280 279 274 270 267 265 262 259 256 253 250 249 243 235 229 224 223 221 220 219 219 218 219 219 219 219 218 218 218 219 220 221 223 225 227 229 230 232 233
307 303 298 294 290 284 277 277 273 270 265 262 259 256 253 248 245 241 235 228 224 222 222 220 218 218 217 217 218 218 219 219 219 219 220 221 221 223 225 227 228 229 232 236
303 301 297 293 290 286 281 275 272 271 269 263 260 257 253 248 243 237 234 229 226 223 221 218 217 217 216 217 217 218 218 219 220 220 220 221 222 223 225 227 229 230 232 235
301 298 295 292 290 286 283 277 273 272 271 268 264 259 253 249 243 237 235 233 229 225 221 218 217 216 215 216 216 217 218 219 220 220 220 221 223 224 224 226 229 230 232 234
300 297 295 291 288 286 280 277 273 271 270 269 266 260 254 250 243 237 235 234 233 228 221 216 214 214 214 215 215 216 217 218 219 220 221 221 222 223 224 226 228 229 232 234
298 295 292 290 289 282 275 273 272 272 268 266 265 260 254 249 244 238 234 232 231 229 222 216 214 214 215 216 215 214 216 217 218 219 220 220 221 223 225 227 229 231 232 234
297 293 290 288 288 282 275 272 271 270 268 265 264 260 255 249 243 237 232 229 227 225 221 218 216 214 215 215 215 214 215 216 217 218 219 219 221 223 226 228 229 231 232 234
296 291 290 290 288 281 277 274 271 269 266 264 260 259 256 249 241 236 232 226 224 222 218 218 218 216 216 214 214 214 215 216 216 217 218 219 221 224 226 227 228 229 231 232
291 289 290 291 287 284 280 276 273 269 266 264 260 257 254 247 240 236 232 227 224 221 216 215 215 215 216 215 215 215 216 216 216 216 217 219 221 222 223 225 226 226 228 230
Height
5555 5550 5546 5542 5538 5535 5533 5532 5533 5536 5538 5538 5540 5546 5554 5560 5565 5574 5583 5593 5603 5614 5625 5634 5645 5655 5665 5675 5684 5693 5701 5709 5716 5723 5731 5737 5743 5749 5755 5760 5765 5770 5774 5778
5547 5542 5538 5534 5531 5528 5526 5525 5526 5528 5529 5529 5531 5536 5544 5549 5555 5563 5573 5582 5592 5603 5613 5623 5634 5644 5655 5665 5674 5684 5692 5701 5708 5716 5723 5730 5736 5742 5747 5752 5758 5763 5767 5772
5538 5536 5530 5527 5524 5521 5520 5519 5519 5520 5522 5523 5523 5527 5535 5541 5546 5554 5563 5573 5582 5592 5603 5614 5623 5634 5644 5655 5665 5674 5684 5692 5700 5708 5715 5721 5727 5733 5739 5746 5751 5756 5761 5765
5533 5529 5525 5521 5519 5515 5514 5514 5514 5514 5515 5516 5519 5519 5529 5533 5538 5546 5555 5564 5574 5583 5593 5603 5613 5624 5634 5646 5655 5665 5674 5683 5691 5699 5706 5714 5721 5728 5734 5740 5744 5749 5753 5758
5527 5522 5519 5516 5514 5510 5509 5508 5509 5509 5509 5511 5514 5514 5523 5527 5533 5540 5548 5556 5565 5574 5583 5593 5603 5614 5625 5635 5645 5655 5664 5673 5682 5690 5698 5706 5713 5720 5726 5731 5736 5741 5746 5751
5523 5518 5514 5511 5509 5507 5505 5504 5505 5505 5505 5507 5511 5511 5516 5522 5527 5533 5540 5548 5556 5565 5574 5584 5593 5602 5613 5623 5634 5644 5654 5664 5673 5681 5689 5697 5705 5712 5718 5724 5729 5734 5739 5744
5520 5516 5511 5508 5506 5505 5503 5502 5501 5501 5502 5504 5506 5507 5512 5517 5521 5526 5532 5540 5547 5556 5564 5574 5583 5593 5603 5613 5624 5634 5644 5654 5664 5672 5681 5689 5697 5704 5710 5716 5722 5727 5732 5737
5514 5513 5509 5505 5503 5501 5500 5500 5499 5499 5499 5500 5502 5503 5509 5511 5514 5519 5524 5531 5539 5547 5555 5565 5574 5584 5594 5604 5614 5625 5635 5645 5655 5664 5672 5681 5688 5695 5702 5708 5714 5720 5725 5730
5509 5508 5506 5502 5500 5499 5497 5497 5497 5496 5496 5496 5498 5501 5504 5506 5509 5513 5518 5524 5531 5539 5547 5556 5565 5575 5585 5595 5605 5616 5626 5636 5646 5655 5664 5672 5680 5687 5694 5700 5706 5711 5717 5721
5505 5503 5503 5500 5498 5496 5495 5494 5494 5494 5493 5493 5495 5497 5500 5502 5505 5509 5513 5518 5525 5532 5540 5548 5557 5566 5576 5585 5596 5606 5616 5627 5637 5646 5655 5663 5671 5679 5686 5692 5698 5703 5709 5713
5501 5499 5498 5497 5495 5493 5493 5492 5491 5490 5490 5490 5490 5496 5495 5497 5499 5503 5506 5511 5517 5524 5532 5540 5549 5558 5567 5576 5586 5597 5607 5617 5627 5637 5646 5654 5662 5670 5677 5683 5690 5695 5700 5705
5498 5494 5493 5493 5491 5489 5489 5488 5487 5488 5487 5487 5486 5492 5491 5492 5494 5497 5500 5504 5510 5516 5524 5532 5541 5549 5558 5568 5577 5588 5598 5609 5619 5628 5637 5646 5654 5661 5668 5675 5681 5687 5692 5697
5494 5490 5487 5487 5488 5486 5485 5484 5483 5483 5483 5483 5483 5487 5486 5487 5489 5491 5494 5498 5503 5510 5517 5525 5533 5541 5550 5560 5569 5579 5589 5600 5610 5619 5628 5637 5644 5652 5660 5667 5673 5678 5684 5689
5489 5486 5484 5483 5481 5479 5479 5479 5479 5478 5477 5478 5479 5480 5482 5482 5484 5486 5488 5492 5497 5503 5510 5517 5525 5533 5542 5552 5561 5571 5581 5591 5601 5610 5619 5628 5636 5644 5652 5658 5664 5670 5676 5681
5484 5481 5478 5476 5475 5473 5473 5473 5473 5473 5472 5473 5474 5475 5476 5477 5478 5480 5483 5486 5491 5497 5503 5510 5517 5526 5534 5544 5553 5563 5572 5582 5591 5601 5610 5619 5628 5635 5642 5649 5655 5662 5668 5673
5478 5475 5473 5471 5469 5467 5467 5467 5467 5467 5467 5467 5468 5470 5471 5471 5473 5475 5477 5480 5485 5490 5496 5503 5510 5518 5527 5536 5545 5554 5564 5573 5582 5592 5602 5611 5619 5626 5633 5640 5646 5653 5659 5665
5473 5470 5467 5465 5463 5461 5461 5462 5461 5461 5461 5461 5462 5465 5465 5466 5468 5469 5472 5475 5479 5484 5490 5496 5503 5511 5519 5528 5537 5546 5555 5565 5574 5584 5593 5602 5610 5617 5625 5632 5638 5644 5651 5656
5468 5464 5460 5459 5458 5456 5458 5456 5455 5455 5455 5455 5456 5457 5459 5460 5462 5463 5466 5469 5473 5478 5484 5490 5496 5504 5512 5520 5529 5538 5547 5556 5566 5575 5584 5592 5601 5609 5616 5623 5630 5637 5642 5648
5462 5458 5455 5453 5451 5450 5452 5451 5450 5449 5450 5450 5450 5451 5452 5454 5456 5458 5460 5463 5467 5472 5477 5483 5489 5496 5504 5512 5521 5529 5538 5547 5557 5566 5575 5584 5592 5600 5607 5614 5621 5628 5634 5640
5456 5453 5451 5448 5445 5445 5448 5445 5443 5444 5444 5444 5444 5444 5446 5447 5450 5453 5454 5457 5461 5465 5470 5476 5482 5489 5496 5504 5513 5522 5530 5539 5548 5558 5566 5575 5583 5591 5598 5606 5612 5619 5625 5631
5450 5447 5445 5442 5439 5439 5441 5438 5438 5439 5439 5438 5437 5437 5439 5440 5443 5446 5448 5451 5454 5458 5463 5468 5474 5481 5489 5497 5505 5514 5523 5532 5541 5549 5557 5566 5574 5582 5589 5596 5603 5610 5616 5622
5443 5440 5438 5435 5433 5436 5433 5432 5431 5431 5431 5431 5431 5431 5432 5433 5435 5438 5441 5444 5448 5452 5456 5462 5468 5475 5482 5490 5498 5507 5516 5524 5532 5541 5549 5558 5565 5573 5580 5587 5594 5600 5606 5613
5436 5434 5430 5429 5430 5427 5425 5424 5424 5424 5424 5424 5424 5424 5425 5427 5429 5432 5435 5438 5442 5446 5451 5456 5462 5469 5476 5483 5491 5499 5508 5515 5524 5532 5541 5549 5557 5564 5571 5578 5585 5591 5598 5604
5429 5426 5423 5421 5421 5419 5417 5416 5416 5416 5416 5416 5417 5418 5419 5421 5423 5426 5429 5432 5436 5440 5445 5451 5457 5463 5470 5476 5484 5492 5500 5508 5516 5524 5532 5540 5548 5556 5563 5570 5576 5583 5590 5596
5422 5418 5415 5413 5413 5411 5410 5409 5408 5408 5408 5409 5410 5411 5412 5414 5417 5420 5423 5426 5430 5435 5440 5445 5451 5458 5464 5471 5478 5485 5493 5500 5508 5516 5524 5532 5540 5547 5554 5561 5568 5575 5582 5588
5414 5410 5407 5407 5405 5403 5403 5402 5401 5401 5401 5402 5403 5405 5406 5408 5410 5413 5417 5420 5425 5429 5434 5440 5446 5452 5459 5466 5473 5479 5486 5494 5501 5509 5517 5524 5532 5539 5546 5553 5560 5566 5574 5580